weather.gov     
National Weather Service

Weather Roundup
NWS Homepage
This page is being discontinued on March 12, 2014.
The same data is available at this site. Please update your bookmarks.
Thank you, and we apologize for the inconvenience.
Please send an email to SR-SRH.Webmaster@noaa.gov with any concerns.


Current Version
Previous Version:    01  02  03  04  05  06  07  08  09  10  11  12  13  14  15  16  17  18  19  20  21  22  23  24  25  26  27  28  29  30  
   31  32  33  34  35  36  37  38  39  40  41  42  43  44  45  46  47  48  49  50  51  52  53  54  55  56  57  58  59  60  
[Printable]
973
NZUS93 KARX 211810
HRRWXR

CURRENT HOURLY OBSERVATIONS ACROSS
MUCH OF THE UPPER MISSISSIPPI VALLEY
NATIONAL WEATHER SERVICE LA CROSSE WI
100 PM CDT THU AUG 21 2014


...SOUTHEAST MINNESOTA...


CITY           SKY/WX    TMP DP  RH WIND       PRES   REMARKS
ROCHESTER      MOSUNNY   77  70  79 S12       29.82F
ROCHESTER/MAYO CLOUDY    76  69  77 S7G16     29.82S
WINONA         CLOUDY    77  70  78 SE7       29.82F
AUSTIN         PTSUNNY   75  72  88 S10       29.80F
ALBERT LEA     PTSUNNY   73  73 100 S12G17    29.78F
DODGE CENTER   MOSUNNY   79  72  78 SW13      29.81F
PRESTON        PTSUNNY   76  74  95 S12G22    29.84F
OWATONNA       MOSUNNY   82  70  65 S12       29.78F
FARIBAULT      MOSUNNY   86  68  54 S9G16     29.77F
$$

...ELSEWHERE IN MINNESOTA...


CITY           SKY/WX    TMP DP  RH WIND       PRES   REMARKS
MINNEAPOLIS    PTSUNNY   82  71  69 SE8       29.76F
INTNL FALLS    CLOUDY    69  60  73 E12       29.88S
DULUTH         CLOUDY    65  60  84 E14       29.89R
RED WING       CLOUDY    81  72  74 SE8       29.77F
REDWOOD FALLS  PTSUNNY   85  74  69 W7        29.72S HX  92
MANKATO        SUNNY     82  70  65 S14G21    29.76S
WORTHINGTON    NOT AVBL
FAIRMONT       MOSUNNY   82  66  57 MISG      29.78R
$$

...SOUTHWEST WISCONSIN...


CITY           SKY/WX    TMP DP  RH WIND       PRES   REMARKS
LA CROSSE      CLOUDY    79  70  74 S10       29.84S
PRAIRIE DU CHI CLOUDY    76  71  84 S6        29.85R
BOSCOBEL       LGT RAIN  74  71  91 NE10      29.84F
LONE ROCK      CLOUDY    78  71  79 VRB7      29.90R
PLATTEVILLE    CLOUDY    73  72  95 SE6       29.93F
FORT MC COY    PTSUNNY   78  68  71 E5        29.88R
CAMP DOUGLAS   CLOUDY    72  72 100 SE8       29.90R
VIROQUA        CLOUDY    74  73  98 S10       29.89R
WIS DELLS      CLOUDY    70  68  92 E10       29.90F
$$

...ELSEWHERE IN WISCONSIN...


CITY           SKY/WX    TMP DP  RH WIND       PRES   REMARKS
MILWAUKEE      TSTM      71  68  90 NW5       30.01R FOG
MADISON        LGT RAIN  72  70  93 SE9       29.93F
GREEN BAY      LGT RAIN  68  65  90 SE7       29.97S
EAU CLAIRE     CLOUDY    76  69  79 SE10      29.83F
BLACK RVR FLS  MOCLDY    77  69  75 E8        29.86R
MEDFORD        CLOUDY    68  66  93 SE9       29.90F
WAUSAU         CLOUDY    66  65  96 SE8       29.91F
WIS RAPIDS     CLOUDY    72  68  87 SE8       29.90F
MARSHFIELD     CLOUDY    75  68  78 E9        29.88F
RICE LAKE      CLOUDY    73  67  81 SE10      29.86S
$$

...NORTHEAST IOWA...


CITY           SKY/WX    TMP DP  RH WIND       PRES   REMARKS
WATERLOO       CLOUDY    77  73  87 S12       29.84F
DUBUQUE        CLOUDY    75  73  93 S8        29.93F FOG
DECORAH        CLOUDY    73  72  94 S8G15     29.83F
MASON CITY     PTSUNNY   82  74  76 S15       29.82F
CHARLES CITY   CLOUDY    75  73  94 S10G17    29.81F
OELWEIN        CLOUDY    75  73  94 S16       29.85F
$$

...ELSEWHERE IN IOWA...


CITY           SKY/WX    TMP DP  RH WIND       PRES   REMARKS
DES MOINES     CLOUDY    83  73  72 S9G17     29.88S
IOWA CITY      LGT RAIN  78  75  90 CALM      29.94S
FORT DODGE     MOSUNNY   82  73  74 S14       29.85R
MARSHALLTOWN   PTSUNNY   80  73  79 S15       29.86S
CEDAR RAPIDS   RAIN      75  74  96 VRB3      29.92S FOG
$$

...NORTHERN ILLINOIS...


CITY           SKY/WX    TMP DP  RH WIND       PRES   REMARKS
CHICAGO-OHARE  CLOUDY    77  68  73 SW3       29.96R
DUPAGE         CLOUDY    76  72  87 S5        29.96R
CHICAGO-MIDWAY CLOUDY    79  72  79 S8        29.95S
MOLINE         CLOUDY    83  73  72 SW5       29.93R
ROCKFORD       CLOUDY    77  72  84 S6        29.95F
STERLING       CLOUDY    81  73  78 W3        29.94S
PEORIA         CLOUDY    85  73  67 SW7       29.95F HX  91
$$

NOTE: "FAIR" INDICATES FEW OR NO CLOUDS BELOW 12,000 FEET WITH NO
SIGNIFICANT WEATHER AND/OR OBSTRUCTIONS TO VISIBILITY. WIND
SPEEDS ARE IN MILES-PER-HOUR.




U.S. Dept. of Commerce
NOAA National Weather Service
1325 East West Highway
Silver Spring, MD 20910
E-mail: w-nws.webmaster@noaa.gov
Page last modified: May 16, 2007
NATIONAL WEATHER SERVICE: for Safety, for Work, for Fun - FOR LIFE